Location: Peterborough
(44.3091°N, 78.3197°W)
Time: 06:43:00
(UTC-04:00)

Vanguard 2 - Pass Details

Date: 24 March 2023
Orbit: 552 x 2926 km, 32.9° (Epoch: 04 June)

Event Time Altitude Azimuth Distance (km) Brightness Sun altitude
Rises 10:46:41 0° 265° (W) 6,266 11.8 35.4°
Reaches altitude 10° 10:51:36 10° 260° (W) 4,936 11.4 36.1°
Maximum altitude 11:03:21 40° 198° (SSW) 2,289 10.7 37.6°
Drops below altitude 10° 11:10:50 10° 131° (SE) 3,146 11.9 38.6°
Sets 11:13:16 0° 123° (ESE) 3,846 12.0 38.9°
